Regional Weather Roundup
Issued by NWS Kansas City/Pleasant Hill, MO

Home | Current Version | Previous Version | Graphics & Text | Print | Product List | Glossary Off
Versions: 1 2 3 4 5 6 7 8 9 10 11 12 13 14 15 16 17 18 19 20 21 22 23 24 25 26 27 28 29 30 31 32 33 34 35 36 37 38 39 40 41 42 43 44 45 46 47 48 49 50

000
ASUS43 KEAX 170011
RWREAX

WEATHER ROUNDUP FOR EASTERN KANSAS AND NORTHWEST MISSOURI
NATIONAL WEATHER SERVICE KANSAS CITY/PLEASANT HILL MO
700 PM CDT TUE SEP 16 2014

KSZ040-057-103>105-MOZ028-029-037-043-170100-
...KANSAS CITY METROPOLITAN AREA...

CITY           SKY/WX    TMP DP  RH WIND       PRES   REMARKS
K.C. INTL      PTCLDY    68  51  54 E9        30.04F
6HR MIN TEMP:  64; 6HR MAX TEMP:  70;

K.C. DOWNTOWN  CLEAR     70  54  56 E7        30.03F
6HR MIN TEMP:  67; 6HR MAX TEMP:  74;

LEES SUMMIT    CLEAR     68  53  58 SE5       30.05F
6HR MIN TEMP:  65; 6HR MAX TEMP:  72;

OLATHE - IXD   CLEAR     68  56  65 SE7       30.05F
6HR MIN TEMP:  66; 6HR MAX TEMP:  73;

OLATHE - OJC   CLEAR     67  54  63 SE7       30.04F
6HR MIN TEMP:  65; 6HR MAX TEMP:  71;

LAWRENCE       CLEAR     68  54  60 SE5       30.04S

$$

MOZ001>008-011>017-020>025-030>033-038>040-044>046-053-054-170100-
...NORTHERN AND CENTRAL MISSOURI...

CITY           SKY/WX    TMP DP  RH WIND       PRES   REMARKS
ST. JOSEPH     CLEAR     65  53  65 SE7       30.04F
6HR MIN TEMP:  64; 6HR MAX TEMP:  70;

MOSBY          CLEAR     66  55  68 CALM      30.04F
WARRENSBURG    CLEAR     64  54  68 SE3       30.05F
WHITEMAN AFB   CLEAR     67  57  69 SE2       30.05F
6HR MIN TEMP:  64; 6HR MAX TEMP:  71;

CLINTON        CLEAR     68  59  73 CALM      30.07S
SEDALIA        CLEAR     68  54  60 SE3       30.07F
6HR MIN TEMP:  65; 6HR MAX TEMP:  72;

WARSAW         NOT AVBL
MARSHALL       CLEAR     68  55  64 E6        30.07F
CHILLICOTHE      N/A     65  53  65 CALM      30.07F
6HR MIN TEMP:  64; 6HR MAX TEMP:  69;

MOBERLY        CLEAR     64  54  68 CALM      30.08F
KIRKSVILLE     CLEAR     62  51  67 SE3       30.09S
6HR MIN TEMP:  62; 6HR MAX TEMP:  68;


$$

MOZ041-047>049-056>058-063>065-088>090-097-170100-
...EASTERN AND SOUTHERN MISSOURI...

CITY           SKY/WX    TMP DP  RH WIND       PRES   REMARKS
ST. LOUIS INTL PTCLDY    62  52  69 E7        30.11S
6HR MIN TEMP:  62; 6HR MAX TEMP:  67;

SPIRIT OF STL  PTCLDY    61  56  83 CALM      30.09F
COLUMBIA       CLEAR     64  55  72 E5        30.08F
JEFFERSON CITY CLEAR     67  54  63 SE5       30.07S
MEXICO         CLEAR     64  59  82 SE3       30.09S
HANNIBAL       CLEAR     61  52  72 CALM      30.08F
ROLLA          HAZE      63  54  72 SE3       30.08S VSB 3/4
LEBANON        MOCLDY    64  59  82 CALM      30.09F
OSAGE BEACH    CLEAR     66  55  68 S6        30.08S
SPRINGFIELD    CLOUDY    70  62  76 S7        30.06F
BRANSON        CLOUDY    66  63  88 E6        30.10S
NEVADA         CLEAR     66  59  77 E5        30.06F
JOPLIN         CLEAR     72  64  76 SE5       30.05F
WEST PLAINS    CLOUDY    66  58  75 SE5       30.10F

$$

IAZ060-094-KSZ022-034>040-054-083-096-NEZ052-066-093-170100-
...KANSAS...SOUTHEAST NEBRASKA AND IOWA...

CITY           SKY/WX    TMP DP  RH WIND       PRES   REMARKS
TOPEKA         CLEAR     71  54  54 E7        30.02F
6HR MIN TEMP:  68; 6HR MAX TEMP:  74;

MANHATTAN      PTCLDY    74  54  49 S7        30.00F
EMPORIA        CLEAR     73  60  63 SE7       30.01F
CHANUTE        CLEAR     74  63  68 SE6       30.03F
WICHITA        PTCLDY    78  63  59 S13       30.00F
OMAHA          PTCLDY    66  48  52 S9        30.03F
LINCOLN        CLOUDY    69  49  48 SE6       30.02S
FALLS CITY     PTCLDY    66  52  60 SE5       30.02F
LAMONI         CLEAR     63  50  62 SE3       30.06F
DES MOINES     CLEAR     65  48  54 S3        30.06F

$$




USA.gov is the U.S. government's official web portal to all federal, state and local government web resources and services.